TimeMDT,TemperatureF,Dew PointF,Humidity,Sea Level PressureIn,VisibilityMPH,Wind Direction,Wind SpeedMPH,Gust SpeedMPH,PrecipitationIn,Events,Conditions,WindDirDegrees,DateUTC
12:53 AM,28.0,10.9,49,30.69,10.0,Calm,Calm,-,N/A,,Clear,0,2013-05-02 06:53:00
1:53 AM,24.1,10.9,57,30.70,10.0,Calm,Calm,-,N/A,,Clear,0,2013-05-02 07:53:00
2:53 AM,18.0,10.0,71,30.68,10.0,NW,3.5,-,N/A,,Clear,320,2013-05-02 08:53:00
3:53 AM,15.1,9.0,77,30.69,10.0,Calm,Calm,-,N/A,,Clear,0,2013-05-02 09:53:00
4:53 AM,16.0,9.0,74,30.69,10.0,Calm,Calm,-,N/A,,Clear,0,2013-05-02 10:53:00
5:53 AM,15.1,10.0,80,30.71,10.0,Calm,Calm,-,N/A,,Clear,0,2013-05-02 11:53:00
6:53 AM,23.0,15.1,72,30.70,10.0,Calm,Calm,-,N/A,,Clear,0,2013-05-02 12:53:00
7:53 AM,34.0,19.0,54,30.70,10.0,Calm,Calm,-,N/A,,Overcast,0,2013-05-02 13:53:00
8:53 AM,41.0,17.1,38,30.69,10.0,South,9.2,-,N/A,,Mostly Cloudy,170,2013-05-02 14:53:00
9:53 AM,46.0,15.1,29,30.68,10.0,SSE,9.2,-,N/A,,Clear,160,2013-05-02 15:53:00
10:53 AM,48.0,16.0,28,30.64,10.0,SE,6.9,-,N/A,,Clear,130,2013-05-02 16:53:00
11:53 AM,51.1,14.0,23,30.61,10.0,SSW,3.5,-,N/A,,Clear,210,2013-05-02 17:53:00
12:53 PM,52.0,14.0,22,30.56,10.0,Calm,Calm,-,N/A,,Partly Cloudy,0,2013-05-02 18:53:00
1:53 PM,54.0,15.1,22,30.54,10.0,Variable,6.9,-,N/A,,Mostly Cloudy,0,2013-05-02 19:53:00
2:53 PM,54.0,12.9,20,30.52,10.0,NW,6.9,-,N/A,,Partly Cloudy,310,2013-05-02 20:53:00
3:53 PM,55.9,10.9,17,30.49,10.0,East,3.5,-,N/A,,Scattered Clouds,100,2013-05-02 21:53:00
4:53 PM,57.0,10.9,16,30.47,10.0,NNW,11.5,-,N/A,,Mostly Cloudy,330,2013-05-02 22:53:00
5:53 PM,55.9,10.0,16,30.47,10.0,North,8.1,-,N/A,,Clear,350,2013-05-02 23:53:00
6:53 PM,55.0,10.9,17,30.45,10.0,Calm,Calm,-,N/A,,Clear,0,2013-05-03 00:53:00
7:53 PM,44.1,15.1,31,30.45,10.0,NE,8.1,-,N/A,,Clear,50,2013-05-03 01:53:00
8:53 PM,44.1,17.1,34,30.45,10.0,East,13.8,-,N/A,,Clear,100,2013-05-03 02:53:00
9:53 PM,39.0,19.0,45,30.45,10.0,East,11.5,-,N/A,,Clear,100,2013-05-03 03:53:00
10:53 PM,37.0,19.9,50,30.45,10.0,ESE,10.4,-,N/A,,Clear,110,2013-05-03 04:53:00
11:53 PM,36.0,19.9,52,30.44,10.0,ESE,11.5,-,N/A,,Clear,120,2013-05-03 05:53:00